Tracking 27380 objects as of 6-Jun-2023
HD Live streaming from Space Station
objects crossing your sky now

THOR ABLESTAR DEB

Track THOR ABLESTAR DEB now!
10-day predictions


NORAD ID: 475
Int'l Code: 1961-015FM
Perigee: 748.8 km
Apogee: 959.6 km
Inclination: 66.2 °
Period: 101.9 minutes
Semi major axis: 7225 km
RCS: 0.0538 m2 (small)
Launch date: June 29, 1961
Source: United States (US)
Launch site: AIR FORCE EASTERN TEST RANGE (AFETR)

Note: This is SATELLITE DEBRIS
Your satellite tracking list
Your tracking list is empty




NASA's NSSDC Master Catalog

Two Line Element Set (TLE):
1 00475U 61015FM  23157.45299868  .00003101  00000-0  15237-2 0  9993
2 00475  66.2281  36.2865 0145836  60.0108 301.5360 14.13601773130774
Source of the keplerian elements: AFSPC